• Processing (Info)

  • MPEC 2023-R162 : 2023 RW5

    The following Minor Planet Electronic Circular may be linked-to from your own Web pages, but must not otherwise be redistributed electronically.

    A form allowing access to any MPEC is at the bottom of this page.


    Read MPEC 2023-R161 Read MPEC 2023-R163


    M.P.E.C. 2023-R162                           Issued 2023 September 12, 19:29 UT
    
         The Minor Planet Electronic Circulars contain information on unusual
             minor planets, routine data on comets and natural satellites,
             and occasional editorial announcements.  They are published
        on behalf of Division F of the International Astronomical Union by the
              Minor Planet Center, Smithsonian Astrophysical Observatory,
                              Cambridge, MA 02138, U.S.A.
    			  
                 Prepared using the Tamkin Foundation Computer Network
    
                                  MPC@CFA.HARVARD.EDU
                URL https://www.minorplanetcenter.net/    ISSN 1523-6714
    
                                    2023 RW5                                 
    
    
    Observations:
         K23R05W  C2023 09 09.11498 18 38 11.53 +45 04 40.2          20.7 GVER162G96
         K23R05W  C2023 09 09.13140 18 38 38.54 +45 12 24.4                VER162G96
         K23R05W*KC2023 09 11.80262 19 48 17.62 +57 33 18.8          20.8 GXER162L51
         K23R05W KC2023 09 11.80420 19 48 19.47 +57 33 33.1          20.9 GXER162L51
         K23R05W KC2023 09 11.80582 19 48 21.26 +57 33 48.1          20.9 GXER162L51
         K23R05W KC2023 09 11.85927 19 49 23.75 +57 41 28.5          21.1 GXER162L51
         K23R05W KC2023 09 11.86247 19 49 27.52 +57 41 55.2          20.9 GXER162L51
         K23R05W KC2023 09 11.86561 19 49 31.25 +57 42 21.8          20.9 GXER162L51
         K23R05W 1C2023 09 11.89853 19 50 18.02 +57 47 04.0          20.7 VXER162033
         K23R05W 1C2023 09 11.89980 19 50 19.51 +57 47 14.8          20.2 VXER162033
         K23R05W 1C2023 09 11.90107 19 50 20.96 +57 47 25.2          20.5 VXER162033
         K23R05W KC2023 09 12.01747419 52 37.10 +58 03 07.4          20.5 GVER162L01
         K23R05W KC2023 09 12.01797019 52 37.72 +58 03 11.6          20.3 GVER162L01
         K23R05W KC2023 09 12.01846419 52 38.38 +58 03 15.7          20.3 GVER162L01
         K23R05W KC2023 09 12.72954 20 07 11.74 +59 32 40.3          20.4 GXER162L51
         K23R05W KC2023 09 12.73367 20 07 15.87 +59 33 08.1          20.3 GXER162L51
         K23R05W KC2023 09 12.73781 20 07 19.99 +59 33 34.2          20.6 GXER162L51
    
    Observer details:
    033 Karl Schwarzschild Observatory, Tautenburg.  Observers S. Melnikov, C.
        Hoegner, F. Ludwig, M. Hartmann, B. Stecklum.  Measurer B. Stecklum.
        1.34-m f/3 Schmidt + CCD.
    G96 Mt. Lemmon Survey.  Observer D. C. Fuls.  Measurers B. Gray, D. Rankin, F.
        C. Shelly.  1.5-m reflector + 10K CCD.
    L01 Visnjan Observatory, Tican.  Observer K. Korlevic.  1.0-m f/2.9 reflector
        + CCD.
    L51 MARGO, Nauchnyi.  Observer G. Borisov.  0.50-m f/1.9 reflector + CCD.
    
    Orbital elements:
    2023 RW5                                                 Earth MOID = 0.0018 AU
    Epoch 2023 Sept. 13.0 TT = JDT 2460200.5                Bell                    
    M   9.31987              (2000.0)            P               Q                  
    n   0.51509157     Peri.  348.60849     +0.86350220     +0.49797151             
    a   1.5412737      Node   340.88216     -0.44143597     +0.66959654             
    e   0.3500412      Incl.   14.12529     -0.24392261     +0.55105793             
    P   1.91           H   25.56          G   0.15           U   9                  
    Residuals in seconds of arc
    230909 G96  0.3-  0.6-    230911 L51  0.4+  0.1-    230912 L01  0.1-  0.1+
    230909 G96  0.3+  0.6+    230911 L51  0.7+  0.2+    230912 L01  0.3+  0.5+
    230911 L51  0.3+  0.2-    230911 033  0.0   0.4-    230912 L51  0.1+  0.1+
    230911 L51  0.4+  0.1+    230911 033  0.0   0.3-    230912 L51  0.1+  0.3+
    230911 L51  0.3-  0.7+    230911 033  0.2-  0.6-    230912 L51  0.1-  1.1-
    230911 L51  0.3+  0.0     230912 L01  0.3-  0.3-
    
    Ephemeris:
    2023 RW5                 a,e,i = 1.54, 0.35, 14                  q = 1.0018
    Date    TT    R. A. (2000) Decl.     Delta      r    Elong.  Phase     V
    2023 08 13    12 03 11.2 -64 43 12   0.1312  1.0101    84.9    87.7    24.3
    ...
    2023 08 28    13 25 59.6 -60 52 29   0.05255 1.0020    79.4    97.7    22.7
    ...
    2023 09 05    16 17 55.9 -20 01 05   0.01578 1.0070    84.2    94.9    20.0
    ...
    2023 09 11    19 29 59.2 +55 08 24   0.03059 1.0150   104.3    74.0    20.6
    2023 09 12    19 52 35.1 +58 01 20   0.03555 1.0166   105.2    72.8    20.9
    2023 09 13    20 12 05.2 +59 59 31   0.04065 1.0184   106.0    71.8    21.2
    ...
    2023 09 19    21 24 56.6 +64 17 08   0.07238 1.0309   109.2    67.0    22.3
    ...
    2023 09 27    22 08 41.8 +64 49 12   0.1151  1.0523   112.7    61.5    23.2
    ...
    2023 10 12    22 48 54.2 +62 53 44   0.1941  1.1051   118.9    52.3    24.1
    
    M. P. C. Staff               (C) Copyright 2023 MPC           M.P.E.C. 2023-R162
    


    Read MPEC 2023-R161 Read MPEC 2023-R163


    MPEC number:

    Enter an MPEC number in one of the following forms:

    • 1997-B01 (the full form)
    • J97B01 (the packed version of the full form)
    • B01 (the abbreviated form)